Location: La Fredeussais
(48.1780°N, 1.3980°W)
Time: 15:33:45
(UTC+00:00)

Nadezhda 1 Rocket - Pass Details

Date: 09 May 2021
Orbit: 940 x 1006 km, 83.0° (Epoch: 23 June)

Event Time Altitude Azimuth Distance (km) Brightness Sun altitude
Exits shadow 22:16:04 32° 177° (S) 1,632 4.7 -20.1°
Maximum altitude 22:19:13 78° 96° (E) 1,011 3.9 -20.3°
Drops below altitude 10° 22:25:29 10° 11° (NNE) 2,733 7.1 -20.8°
Sets 22:27:59 0° 11° (N) 3,674 7.9 -20.9°
